Mt Hood
Timberline - Magic Mile Chair
Latest observation 09/01 16:00 PDT
| Time (PDT) | Temp °F 6990' | RH % 6990' | Min mph 6990' | Spd mph 6990' | Gust mph 6990' | Dir ° 6990' |
|---|---|---|---|---|---|---|
| 09/01 16:00 | 53 | 56 | 4 | 14 | 28 | -7999 |
| 09/01 15:00 | 54 | 53 | 2 | 15 | 29 | -7999 |
| 09/01 14:00 | 57 | 51 | 4 | 13 | 30 | -7999 |
| 09/01 13:00 | 58 | 37 | 1 | 12 | 25 | -7999 |
| 09/01 12:00 | 58 | 45 | 2 | 12 | 20 | -7999 |
| 09/01 11:00 | 59 | 49 | 0 | 7 | 17 | -7999 |
| 09/01 10:00 | 60 | 32 | 0 | 2 | 11 | -7999 |
| 09/01 09:00 | 58 | 41 | 0 | 0 | 6 | -7999 |
| 09/01 08:00 | 53 | 34 | 0 | 0 | 1 | -7999 |
| 09/01 07:00 | 53 | 31 | 0 | 0 | 0 | -7999 |
| 09/01 06:00 | 53 | 32 | 0 | 0 | 2 | -7999 |
| 09/01 05:00 | 53 | 28 | 0 | 0 | 1 | -7999 |
| 09/01 04:00 | 54 | 26 | 0 | 0 | 4 | -7999 |
| 09/01 03:00 | 54 | 26 | 0 | 1 | 4 | -7999 |
| 09/01 02:00 | 53 | 33 | 0 | 1 | 4 | -7999 |
| 09/01 01:00 | 56 | 26 | 0 | 4 | 15 | -7999 |
| 09/01 00:00 | 53 | 44 | 0 | 1 | 5 | -7999 |
| 08/31 23:00 | 54 | 50 | 0 | 0 | 0 | -7999 |
| 08/31 22:00 | 56 | 48 | 0 | 0 | 0 | -7999 |
| 08/31 21:00 | 58 | 43 | 0 | 0 | 1 | -7999 |
| 08/31 20:00 | 59 | 42 | 0 | 0 | 0 | -7999 |
| 08/31 19:00 | 61 | 40 | 0 | 3 | 13 | -7999 |
| 08/31 18:00 | 63 | 41 | 0 | 10 | 19 | -7999 |
| 08/31 17:00 | 65 | 33 | 0 | 7 | 16 | -7999 |

